When you browse on this site, cookies collect data to enhance your experience and personalize the content and advertising you see.
Visit our Privacy Policy to learn more. By continuing to use the site, you agree to this use of cookies and data.
  • In Netherlands
  • List of Countries
  • For 7 days
  • Water Temperature
  • Satellite Maps
  • Weather Map
  • Weather Widgets
  • user-avatar
    Login

    Hourly Weather Kitzbuhel

    Today, 20 November, Tuesday

    Time Temperature Precipitation Wind Pressure Humidity
    00:00 -4°C° 0 mm 2 mps 668 mmHg 76%
    01:00 -4°C° 0 mm 3 mps 669 mmHg 71%
    02:00 -3°C° 0.1 mm 2 mps 668 mmHg 72%
    03:00 -2°C° 0.1 mm 2 mps 668 mmHg 73%
    04:00 -2°C° 0.1 mm 2 mps 667 mmHg 74%
    05:00 -2°C° 0.2 mm 2 mps 667 mmHg 75%
    06:00 -2°C° 0.2 mm 2 mps 667 mmHg 76%
    07:00 -2°C° 0.2 mm 2 mps 667 mmHg 77%
    08:00 -1°C° 0.1 mm 2 mps 667 mmHg 73%
    09:00 +2°C° 0.1 mm 2 mps 667 mmHg 69%
    10:00 +3°C° 0.1 mm 2 mps 667 mmHg 66%
    11:00 +4°C° 0 mm 2 mps 667 mmHg 64%
    12:00 +5°C° 0 mm 2 mps 667 mmHg 62%
    13:00 +6°C° 0 mm 2 mps 668 mmHg 60%
    14:00 +5°C° 0 mm 2 mps 668 mmHg 67%
    15:00 +4°C° 0 mm 2 mps 668 mmHg 74%
    16:00 +3°C° 0 mm 1 mps 668 mmHg 82%
    17:00 +2°C° 0 mm 1 mps 668 mmHg 85%
    18:00 +1°C° 0 mm 1 mps 668 mmHg 88%
    19:00 0°C° 0 mm 1 mps 669 mmHg 92%
    20:00 0°C° 0 mm 1 mps 669 mmHg 91%
    21:00 0°C° 0 mm 1 mps 670 mmHg 91%
    22:00 0°C° 0 mm 1 mps 670 mmHg 90%
    23:00 0°C° 0 mm 1 mps 670 mmHg 90%

    Tomorrow, 21 November, Wednesday

    Time Temperature Precipitation Wind Pressure Humidity
    00:00 0°C° 0 mm 1 mps 671 mmHg 89%
    01:00 0°C° 0 mm 1 mps 671 mmHg 88%
    02:00 +1°C° 0 mm 1 mps 671 mmHg 87%
    03:00 +1°C° 0 mm 1 mps 671 mmHg 87%
    04:00 +1°C° 0 mm 1 mps 671 mmHg 86%
    05:00 +1°C° 0 mm 1 mps 671 mmHg 85%
    06:00 +1°C° 0 mm 1 mps 671 mmHg 85%
    07:00 +1°C° 0 mm 1 mps 671 mmHg 84%
    08:00 +3°C° 0 mm 1 mps 672 mmHg 79%
    09:00 +4°C° 0 mm 1 mps 672 mmHg 74%
    10:00 +6°C° 0 mm 1 mps 673 mmHg 68%
    11:00 +7°C° 0 mm 1 mps 673 mmHg 67%
    12:00 +8°C° 0 mm 1 mps 673 mmHg 66%
    13:00 +9°C° 0 mm 1 mps 673 mmHg 65%
    14:00 +7°C° 0 mm 1 mps 673 mmHg 72%
    15:00 +6°C° 0 mm 1 mps 673 mmHg 80%
    16:00 +4°C° 0 mm 1 mps 673 mmHg 88%
    17:00 +4°C° 0 mm 1 mps 673 mmHg 88%
    18:00 +3°C° 0 mm 1 mps 673 mmHg 89%
    19:00 +2°C° 0 mm 1 mps 674 mmHg 89%
    20:00 +2°C° 0 mm 1 mps 674 mmHg 88%
    21:00 +2°C° 0 mm 1 mps 674 mmHg 87%
    22:00 +2°C° 0 mm 1 mps 674 mmHg 86%
    23:00 +2°C° 0 mm 1 mps 674 mmHg 85%

    Day after tomorrow, 22 November, Thursday

    Time Temperature Precipitation Wind Pressure Humidity
    00:00 +1°C° 0 mm 1 mps 674 mmHg 84%
    01:00 +1°C° 0 mm 1 mps 675 mmHg 83%
    02:00 +1°C° 0 mm 1 mps 675 mmHg 83%
    03:00 +1°C° 0 mm 1 mps 675 mmHg 82%
    04:00 +1°C° 0 mm 1 mps 675 mmHg 82%
    05:00 +1°C° 0 mm 1 mps 675 mmHg 81%
    06:00 +1°C° 0 mm 1 mps 675 mmHg 81%
    07:00 +1°C° 0 mm 1 mps 675 mmHg 80%
    08:00 +1°C° 0 mm 0 mps 676 mmHg 75%
    09:00 +3°C° 0 mm 0 mps 676 mmHg 70%
    10:00 +5°C° 0 mm 0 mps 677 mmHg 65%
    11:00 +5°C° 0 mm 0 mps 677 mmHg 64%
    12:00 +7°C° 0 mm 1 mps 677 mmHg 64%
    13:00 +8°C° 0 mm 1 mps 677 mmHg 63%
    14:00 +7°C° 0 mm 1 mps 677 mmHg 70%
    15:00 +6°C° 0 mm 1 mps 677 mmHg 77%
    16:00 +3°C° 0 mm 0 mps 677 mmHg 84%
    17:00 +3°C° 0 mm 0 mps 677 mmHg 85%
    18:00 +3°C° 0 mm 1 mps 677 mmHg 86%
    19:00 +2°C° 0 mm 1 mps 678 mmHg 88%
    20:00 +2°C° 0 mm 1 mps 678 mmHg 87%
    21:00 +2°C° 0 mm 1 mps 678 mmHg 87%
    22:00 +2°C° 0 mm 1 mps 678 mmHg 86%
    23:00 +2°C° 0 mm 1 mps 679 mmHg 86%

    23 November, Friday

    Time Temperature Precipitation Wind Pressure Humidity
    00:00 +2°C° 0 mm 1 mps 679 mmHg 85%
    01:00 +2°C° 0 mm 1 mps 679 mmHg 85%
    02:00 +2°C° 0 mm 1 mps 679 mmHg 85%
    03:00 +1°C° 0 mm 1 mps 679 mmHg 85%
    04:00 +1°C° 0 mm 1 mps 679 mmHg 84%
    05:00 +1°C° 0 mm 1 mps 679 mmHg 84%
    06:00 +1°C° 0 mm 1 mps 679 mmHg 83%
    07:00 +1°C° 0 mm 1 mps 679 mmHg 83%
    08:00 +3°C° 0 mm 1 mps 680 mmHg 77%
    09:00 +5°C° 0 mm 1 mps 680 mmHg 72%
    10:00 +6°C° 0 mm 1 mps 680 mmHg 66%
    11:00 +7°C° 0 mm 1 mps 680 mmHg 63%
    12:00 +8°C° 0 mm 1 mps 680 mmHg 61%
    13:00 +9°C° 0 mm 1 mps 680 mmHg 59%
    14:00 +8°C° 0 mm 1 mps 679 mmHg 66%
    15:00 +6°C° 0 mm 1 mps 679 mmHg 73%
    16:00 +5°C° 0 mm 1 mps 678 mmHg 80%
    17:00 +4°C° 0 mm 1 mps 678 mmHg 81%
    18:00 +3°C° 0 mm 2 mps 678 mmHg 83%
    19:00 +2°C° 0 mm 2 mps 678 mmHg 84%
    20:00 +2°C° 0 mm 2 mps 678 mmHg 83%
    21:00 +2°C° 0 mm 2 mps 678 mmHg 82%
    22:00 +2°C° 0 mm 2 mps 678 mmHg 81%
    23:00 +2°C° 0 mm 2 mps 677 mmHg 81%

    24 November, Saturday

    Time Temperature Precipitation Wind Pressure Humidity
    00:00 +3°C° 0 mm 2 mps 677 mmHg 81%
    01:00 +2°C° 0 mm 3 mps 676 mmHg 81%
    02:00 +2°C° 0 mm 3 mps 675 mmHg 81%
    03:00 +2°C° 0 mm 3 mps 675 mmHg 81%
    04:00 +2°C° 0 mm 3 mps 674 mmHg 81%
    05:00 +3°C° 0.1 mm 3 mps 674 mmHg 81%
    06:00 +3°C° 0.1 mm 3 mps 673 mmHg 82%
    07:00 +3°C° 0.1 mm 3 mps 673 mmHg 82%
    08:00 +4°C° 0.1 mm 3 mps 673 mmHg 80%
    09:00 +5°C° 0.1 mm 3 mps 672 mmHg 79%
    10:00 +7°C° 0.1 mm 3 mps 672 mmHg 77%
    11:00 +7°C° 0.1 mm 3 mps 673 mmHg 77%
    12:00 +8°C° 0.1 mm 3 mps 673 mmHg 77%
    13:00 +8°C° 0.1 mm 3 mps 673 mmHg 76%
    14:00 +7°C° 0.5 mm 2 mps 673 mmHg 81%
    15:00 +6°C° 0.5 mm 2 mps 673 mmHg 86%
    16:00 +5°C° 0.5 mm 2 mps 673 mmHg 92%
    17:00 +5°C° 0.7 mm 2 mps 673 mmHg 93%
    18:00 +6°C° 0.7 mm 1 mps 673 mmHg 93%
    19:00 +5°C° 0.7 mm 1 mps 674 mmHg 94%
    20:00 +5°C° 0.3 mm 1 mps 674 mmHg 94%
    21:00 +5°C° 0.3 mm 1 mps 674 mmHg 94%
    22:00 +5°C° 0.3 mm 1 mps 674 mmHg 93%
    23:00 +5°C° 0.3 mm 1 mps 674 mmHg 93%

    25 November, Sunday

    Time Temperature Precipitation Wind Pressure Humidity
    00:00 +5°C° 0.3 mm 1 mps 674 mmHg 93%
    01:00 +4°C° 0.3 mm 1 mps 674 mmHg 93%
    02:00 +4°C° 0.4 mm 1 mps 674 mmHg 93%
    03:00 +4°C° 0.4 mm 1 mps 674 mmHg 93%
    04:00 +4°C° 0.4 mm 1 mps 674 mmHg 93%
    05:00 +4°C° 0.4 mm 1 mps 674 mmHg 93%
    06:00 +3°C° 0.4 mm 1 mps 674 mmHg 94%
    07:00 +3°C° 0.4 mm 1 mps 674 mmHg 94%
    08:00 +4°C° 0.3 mm 1 mps 674 mmHg 91%
    09:00 +4°C° 0.3 mm 1 mps 674 mmHg 89%
    10:00 +5°C° 0.3 mm 1 mps 674 mmHg 87%
    11:00 +5°C° 0.1 mm 1 mps 674 mmHg 84%
    12:00 +6°C° 0.1 mm 1 mps 674 mmHg 81%
    13:00 +7°C° 0.1 mm 1 mps 673 mmHg 78%
    14:00 +6°C° 0 mm 1 mps 673 mmHg 82%
    15:00 +5°C° 0 mm 1 mps 672 mmHg 85%
    16:00 +5°C° 0 mm 1 mps 672 mmHg 88%
    17:00 +4°C° 0 mm 1 mps 672 mmHg 90%
    18:00 +3°C° 0 mm 1 mps 672 mmHg 91%
    19:00 +2°C° 0 mm 1 mps 672 mmHg 93%
    20:00 +2°C° 0 mm 1 mps 671 mmHg 92%
    21:00 +2°C° 0 mm 1 mps 671 mmHg 92%
    22:00 +2°C° 0 mm 1 mps 671 mmHg 92%
    23:00 +2°C° 0 mm 1 mps 671 mmHg 92%
    Show more